Temperature
9 10 10 10 10 10 9 9 9 11 11 12 13 12 13 13 13 12 12 11 11 10 10 9 8 8 8 8 9 9 9 9 9 9 8 8 8 7 7 6 5 5 4 4
8 9 9 9 9 10 10 10 10 10 10 12 12 13 12 12 12 12 11 11 11 10 10 9 9 8 8 9 9 9 9 9 9 8 8 7 7 6 6 5 4 3 3 3
8 9 9 7 9 9 10 10 10 9 10 11 11 11 11 11 10 10 10 10 10 10 10 9 9 9 9 9 9 9 9 8 8 8 7 7 6 5 4 4 3 2 2 2
7 8 6 9 10 10 10 10 10 10 10 10 10 10 10 10 9 9 9 9 10 10 10 9 9 9 9 9 9 9 8 8 8 7 7 6 5 4 3 3 2 1 1 1
7 7 8 9 9 9 9 9 10 10 10 10 9 9 9 8 8 8 8 8 9 9 9 9 9 9 9 9 9 8 8 8 7 7 6 5 5 4 2 2 1 1 0 0
7 7 8 8 9 9 9 8 8 9 8 9 9 7 7 7 7 7 7 8 8 8 9 8 8 8 8 8 8 8 8 7 7 6 5 5 4 3 2 1 1 0 0 -0
6 7 8 8 8 9 7 6 8 8 7 7 7 6 7 7 6 7 7 7 7 8 8 8 8 8 8 8 8 7 7 6 6 5 5 4 3 3 2 1 0 0 -0 -0
6 6 6 7 8 7 6 7 7 6 6 6 6 6 6 6 6 6 6 6 7 7 7 7 7 7 7 7 6 6 6 5 5 4 4 3 3 2 1 1 0 0 -0 0
6 6 6 6 6 5 5 5 5 5 5 5 5 5 5 5 5 6 6 6 6 6 6 6 6 6 6 6 6 5 5 5 4 4 3 3 3 2 1 1 1 0 0 0
6 6 6 5 5 4 4 4 4 4 4 4 4 4 5 5 5 5 5 5 6 6 6 6 6 6 5 5 5 5 4 4 4 3 3 3 2 2 1 1 1 1 1 0
5 5 5 4 3 3 3 3 3 3 3 3 3 4 4 4 4 4 5 5 5 5 5 5 5 5 5 5 4 4 4 3 3 3 2 2 2 2 2 1 1 1 1 0
3 3 3 3 2 2 2 2 2 2 2 2 3 3 3 3 3 4 4 4 4 4 4 4 4 4 4 4 4 3 3 3 3 2 2 2 2 1 1 1 1 1 0 0
2 2 1 2 2 1 1 1 1 1 1 2 2 2 2 2 3 3 3 3 3 3 3 3 3 3 3 3 3 3 3 2 2 2 2 1 1 1 1 1 1 1 1 1
1 1 1 1 1 0 0 0 0 1 1 1 1 1 1 2 2 2 2 2 2 3 3 3 3 3 3 2 2 2 2 2 2 1 1 1 1 1 1 1 1 1 1 0
1 0 -0 -0 -0 -0 -0 -0 -0 -0 -0 0 0 0 1 1 1 1 1 1 2 2 2 2 2 2 2 2 2 2 2 1 1 1 1 1 1 1 0 0 0 0 0 0
-0 -0 -1 -1 -1 -1 -1 -1 -1 -1 -1 -1 -0 -0 -0 -0 0 0 0 1 1 1 1 1 1 1 1 1 1 1 1 1 1 0 0 0 0 -0 -0 -0 -0 0 0 0
-1 -1 -1 -1 -1 -2 -2 -2 -2 -2 -2 -1 -1 -1 -1 -1 -1 -1 -1 -0 -0 -0 0 0 0 0 0 0 0 0 0 0 0 0 0 -0 -0 -0 -0 -0 -0 -0 0 0
-1 -1 -1 -2 -2 -2 -2 -2 -2 -2 -2 -2 -2 -2 -2 -2 -2 -2 -1 -1 -1 -1 -1 -1 -0 -1 -0 -0 -0 -0 -0 -0 -0 -0 -1 -1 -1 -1 -1 -1 -1 -1 -0 -0
-0 -1 -1 -1 -2 -2 -2 -2 -2 -2 -2 -2 -2 -2 -3 -3 -2 -2 -2 -2 -2 -2 -1 -1 -1 -1 -1 -1 -1 -1 -1 -1 -1 -1 -1 -1 -1 -1 -1 -1 -1 -1 -1 -1
-0 -1 -1 -1 -2 -2 -2 -2 -2 -2 -3 -3 -3 -3 -3 -3 -3 -3 -3 -3 -2 -2 -2 -2 -2 -2 -2 -2 -2 -2 -2 -2 -2 -2 -2 -2 -2 -2 -2 -2 -2 -2 -2 -2
-1 -1 -1 -1 -2 -2 -2 -2 -3 -3 -3 -3 -3 -3 -3 -3 -3 -3 -3 -3 -3 -3 -3 -3 -3 -2 -2 -2 -2 -2 -2 -3 -3 -3 -3 -3 -3 -3 -2 -2 -2 -2 -2 -2
-1 -1 -1 -2 -2 -2 -2 -2 -3 -3 -3 -3 -3 -3 -3 -3 -3 -3 -4 -4 -3 -3 -3 -3 -3 -3 -3 -3 -3 -3 -3 -3 -3 -3 -3 -3 -3 -3 -3 -3 -3 -3 -3 -3
-1 -1 -1 -2 -2 -2 -2 -2 -3 -3 -3 -3 -3 -3 -3 -4 -4 -4 -4 -4 -4 -4 -4 -4 -3 -3 -3 -3 -3 -3 -4 -4 -4 -4 -4 -4 -4 -4 -4 -4 -4 -4 -4 -4
-1 -1 -1 -2 -2 -2 -2 -2 -3 -3 -3 -3 -3 -3 -4 -4 -4 -4 -4 -4 -4 -4 -4 -4 -4 -4 -4 -4 -4 -4 -4 -4 -4 -4 -4 -4 -5 -5 -5 -5 -5 -5 -5 -5
-1 -1 -2 -2 -2 -2 -2 -2 -3 -3 -3 -3 -3 -3 -4 -4 -4 -4 -4 -4 -4 -4 -4 -4 -4 -4 -4 -4 -4 -4 -4 -4 -5 -5 -5 -5 -5 -5 -5 -5 -5 -5 -5 -5
-2 -2 -2 -2 -2 -2 -3 -3 -3 -3 -3 -3 -3 -3 -4 -4 -4 -4 -4 -4 -5 -5 -5 -5 -4 -4 -4 -4 -4 -4 -5 -5 -5 -5 -5 -5 -5 -5 -5 -5 -5 -5 -6 -6
-2 -2 -2 -2 -2 -3 -3 -3 -3 -3 -3 -4 -4 -4 -4 -4 -4 -4 -5 -5 -5 -5 -5 -5 -5 -5 -5 -5 -5 -5 -5 -5 -5 -5 -5 -5 -5 -6 -6 -6 -6 -6 -6 -6
Wind_Speed
2 3 2 2 5 8 8 6 5 4 5 5 3 3 3 3 3 2 2 2 4 6 6 8 8 9 9 8 8 8 8 8 7 7 7 6 5 4 3 3 2 2 2 2
1 1 1 2 5 7 8 9 9 9 9 6 5 5 6 6 6 5 5 4 5 6 7 8 9 9 9 9 9 8 8 8 7 7 7 6 5 5 4 3 2 2 2 2
2 3 1 5 7 9 7 6 6 8 6 5 6 6 6 6 6 7 7 5 5 5 7 8 9 9 10 10 9 9 8 8 8 8 7 6 6 5 5 4 3 3 2 3
1 2 4 2 4 2 2 4 3 3 4 5 5 6 5 4 6 7 7 7 5 3 4 6 7 8 9 9 10 9 8 8 8 8 7 7 6 6 5 4 4 3 3 3
1 3 5 3 3 2 1 1 2 3 4 6 7 6 3 7 6 6 7 7 6 3 2 4 6 8 10 9 9 9 9 9 9 9 8 8 7 6 5 4 4 3 3 3
2 2 2 3 4 3 2 0 6 6 6 6 6 4 2 7 7 7 7 6 6 4 2 3 4 7 9 9 9 9 9 8 8 8 8 8 7 6 5 4 4 4 4 3
3 3 1 3 1 0 1 1 6 6 6 7 5 3 5 7 6 5 6 6 6 5 4 3 4 6 7 7 7 7 7 8 8 8 8 7 7 6 6 5 5 5 5 4
3 4 2 3 2 3 3 5 6 7 7 6 6 6 6 6 5 5 5 5 6 5 4 3 3 4 4 5 5 6 7 7 7 7 7 7 7 7 6 6 6 6 5 5
1 1 4 5 5 5 6 6 7 7 7 7 7 6 6 5 5 4 4 4 4 3 2 2 2 3 4 4 6 7 7 7 7 7 7 7 8 8 7 6 6 6 5 5
1 3 4 5 6 7 8 7 7 7 7 7 7 7 6 6 4 4 3 3 3 2 1 0 1 2 3 5 6 7 7 7 7 7 7 7 7 7 7 7 7 6 6 6
2 2 3 4 7 7 8 7 8 8 7 7 7 7 6 6 5 4 3 2 2 2 2 1 1 1 2 5 6 6 6 6 7 7 7 7 7 7 8 7 8 8 7 6
0 3 3 4 6 7 7 8 8 9 9 7 6 7 7 6 5 4 4 3 3 3 3 2 1 1 2 4 5 6 6 6 6 6 6 6 6 6 10 10 13 14 11 9
2 3 4 7 6 6 7 8 8 8 8 8 7 6 6 5 4 4 4 3 3 4 3 3 2 2 2 3 4 6 6 6 5 6 6 6 6 7 6 8 14 15 15 16
1 3 4 4 6 7 7 8 8 8 7 6 6 6 6 6 5 5 4 4 4 4 4 3 3 2 1 1 3 5 5 6 6 6 6 7 7 7 6 6 6 7 12 18
1 2 5 7 7 7 7 7 8 7 6 6 5 5 6 6 6 6 4 4 5 5 4 3 3 3 2 2 3 4 4 4 5 5 6 6 6 6 7 7 7 6 5 8
3 4 5 6 7 7 7 8 8 8 7 7 6 6 6 6 7 6 5 4 5 5 3 3 3 3 3 3 3 4 4 6 6 5 5 6 6 7 7 7 7 7 7 7
3 4 4 6 7 8 8 7 7 7 7 7 7 7 6 6 6 6 5 4 4 4 3 3 4 4 4 4 4 3 3 4 6 5 5 6 6 7 7 7 7 8 8 8
4 5 5 6 7 8 8 7 7 7 7 7 7 6 6 6 7 7 6 5 5 5 3 3 3 4 5 4 4 3 3 4 4 4 5 5 6 6 6 7 7 8 6 7
4 5 5 6 6 6 7 7 7 6 6 6 6 6 6 6 6 6 6 6 6 6 4 2 4 4 4 5 5 4 4 4 4 4 4 6 6 5 6 6 6 6 6 6
5 5 6 6 6 6 7 6 6 6 6 6 6 7 7 6 6 6 6 6 5 4 3 4 4 4 4 5 5 4 4 4 4 4 4 4 4 5 5 5 6 6 6 6
6 6 6 7 7 7 7 7 6 7 7 6 6 7 7 7 6 6 6 6 4 3 3 5 4 3 4 5 6 4 4 4 4 4 4 4 4 4 4 5 5 5 5 5
6 6 7 7 7 7 7 6 6 7 7 7 7 7 7 7 7 6 6 6 5 5 3 3 3 5 6 7 4 4 4 4 4 4 4 4 4 4 4 4 5 5 5 5
6 6 7 7 7 7 7 7 7 7 8 8 7 7 7 7 6 6 7 4 3 6 4 4 6 8 9 5 4 4 4 4 4 4 4 4 4 4 4 4 4 4 4 4
6 7 7 7 6 7 9 9 8 7 7 8 8 8 7 6 6 5 5 7 8 8 5 6 9 9 8 3 3 4 4 4 4 4 4 4 4 4 4 4 4 4 4 5
7 7 7 7 7 7 8 8 7 7 7 7 7 7 6 5 6 5 4 5 8 8 5 7 9 9 5 3 3 3 3 4 4 4 3 3 4 4 4 4 4 4 4 5
7 7 7 7 7 7 6 5 5 6 6 6 6 5 5 5 6 6 5 6 7 8 6 4 4 5 3 3 3 4 3 4 4 4 3 4 4 4 4 4 5 4 4 4
7 7 6 6 7 6 6 6 7 7 6 6 7 5 5 5 5 5 5 5 5 5 5 4 4 4 4 4 4 3 3 3 3 3 3 4 4 4 4 5 4 4 4 4
Wind_Direction
29 14 61 189 214 216 217 214 218 249 266 285 324 356 6 1 348 331 287 234 212 197 190 181 176 170 164 160 154 151 151 151 149 137 128 124 126 126 121 115 112 106 110 115
305 236 225 255 247 236 234 236 247 265 276 299 329 355 355 346 335 312 291 261 232 209 197 189 182 175 167 164 160 156 158 156 146 139 139 142 146 144 144 146 144 139 131 124
218 165 242 254 235 225 224 225 234 250 267 328 341 345 345 342 332 318 309 293 253 221 207 197 186 175 173 168 158 160 161 156 152 151 154 157 158 158 165 167 158 150 138 126
258 139 233 216 60 51 251 254 257 286 325 341 345 335 332 350 341 328 327 320 300 249 214 196 176 164 158 154 158 162 162 160 158 159 161 159 162 168 167 156 155 152 146 134
238 241 250 162 107 74 3 300 18 357 353 2 354 328 20 20 7 346 333 326 318 300 235 178 161 155 150 154 158 164 169 167 164 164 163 164 169 168 161 156 158 160 154 150
245 265 283 89 80 42 357 128 39 29 9 358 349 336 352 3 2 355 350 344 337 341 29 98 128 137 147 158 165 176 175 167 162 162 165 170 171 165 159 162 170 167 168 173
242 250 293 66 74 20 338 65 16 18 12 2 353 332 325 345 356 358 353 349 353 13 46 71 102 128 151 162 177 172 158 154 157 161 164 166 165 163 163 167 171 177 182 194
207 224 224 37 39 45 41 16 16 11 4 350 333 330 338 345 347 357 360 5 9 22 37 55 90 124 151 169 162 147 146 152 157 161 166 167 164 167 171 175 181 190 197 207
189 131 80 59 65 46 26 12 3 353 343 337 327 328 333 337 347 357 8 7 9 25 43 62 114 146 170 170 153 150 154 163 166 168 170 169 170 175 181 188 195 199 202 210
339 86 67 72 60 35 18 3 349 342 335 335 324 324 330 332 338 343 352 359 358 1 5 312 180 178 172 156 155 161 171 175 174 174 177 179 184 186 192 198 203 205 206 212
282 22 24 68 38 6 350 348 345 339 333 327 323 320 321 319 322 328 335 348 344 331 316 292 241 190 163 158 162 174 181 182 182 185 186 191 197 203 204 208 206 206 209 206
290 45 340 324 347 341 339 340 337 330 324 322 320 317 318 316 325 332 335 339 332 328 323 312 288 232 184 173 176 184 191 193 193 194 194 197 202 215 220 219 224 225 221 215
337 340 305 294 313 342 336 328 325 319 314 314 319 320 318 315 320 323 324 327 325 322 317 304 282 263 228 193 192 201 207 204 200 201 200 202 203 211 224 228 232 235 234 234
317 329 299 321 326 322 315 312 307 302 304 313 320 325 323 316 317 318 319 323 320 310 305 303 295 288 280 223 215 219 220 217 213 211 209 209 211 214 217 220 225 234 234 236
34 340 296 304 307 314 321 321 316 312 317 321 325 324 324 320 317 317 322 322 310 300 305 315 311 318 345 317 264 246 234 225 219 217 214 214 215 216 220 224 230 232 224 231
321 308 300 309 317 321 324 322 316 315 318 316 318 321 321 315 309 310 316 318 309 306 318 320 311 321 327 304 283 266 251 242 230 223 221 220 219 221 224 227 230 232 234 231
274 290 301 307 310 313 313 310 308 308 311 312 315 317 316 313 310 309 313 316 310 304 306 303 305 317 314 299 286 274 268 261 247 238 230 226 224 226 227 228 231 235 237 231
241 266 276 284 294 302 307 308 307 306 306 306 309 309 308 305 303 305 309 311 307 296 288 288 313 322 311 304 295 283 273 266 259 253 244 236 235 229 229 231 234 238 241 238
255 269 277 283 287 291 294 296 298 300 300 302 301 299 297 295 296 299 305 304 300 298 303 314 322 314 303 304 305 285 276 271 267 260 253 253 250 237 232 234 238 239 239 234
263 270 277 283 285 282 284 287 290 291 290 292 294 295 296 296 296 295 294 286 274 272 293 300 303 295 295 300 307 290 284 279 276 272 262 254 252 248 241 239 242 244 242 240
262 269 273 275 277 275 271 273 277 281 285 283 282 283 285 287 287 287 287 287 283 273 285 295 291 286 291 299 304 291 284 280 279 279 275 268 263 258 251 246 246 248 247 246
260 263 266 268 271 274 271 265 265 271 277 277 276 278 282 286 286 282 267 262 275 285 285 277 277 288 297 304 295 288 283 281 280 279 277 275 271 268 263 258 254 253 251 251
264 265 267 268 270 274 278 273 266 265 266 268 270 271 271 274 275 277 284 274 269 282 279 266 281 292 301 301 287 285 286 284 281 279 278 276 275 273 270 267 263 260 258 255
268 269 268 271 274 275 276 274 266 261 261 264 262 260 261 271 274 254 253 277 285 285 273 275 285 290 297 290 282 283 285 285 283 282 283 283 281 278 275 274 270 266 264 263
269 271 271 269 267 263 264 269 271 268 266 265 263 256 247 241 252 266 265 267 277 283 275 278 285 289 284 270 272 278 281 281 283 285 281 285 286 287 284 280 276 273 271 267
264 263 262 256 254 258 263 264 265 267 265 269 270 259 250 245 247 255 260 259 261 272 268 263 270 279 270 265 266 271 273 285 294 295 290 289 287 285 285 284 283 280 277 273
267 265 267 271 267 256 252 252 257 262 260 260 269 267 258 256 255 256 259 258 258 257 254 252 250 251 256 259 262 265 269 273 276 278 280 281 282 282 284 283 283 282 279 276
Height
1470 1468 1468 1469 1470 1471 1475 1476 1480 1474 1471 1468 1467 1467 1468 1468 1469 1469 1469 1469 1469 1469 1470 1471 1472 1473 1475 1477 1480 1483 1485 1486 1488 1489 1490 1490 1490 1490 1490 1490 1489 1488 1488 1488
1474 1470 1470 1472 1470 1470 1470 1471 1472 1472 1471 1467 1467 1467 1467 1467 1468 1468 1468 1467 1467 1467 1467 1468 1469 1470 1472 1474 1477 1479 1481 1483 1484 1485 1486 1486 1486 1486 1485 1485 1485 1484 1484 1484
1474 1470 1472 1475 1468 1467 1468 1466 1468 1471 1470 1467 1467 1467 1468 1467 1467 1467 1466 1465 1464 1463 1463 1464 1465 1467 1469 1471 1474 1476 1478 1479 1480 1481 1482 1482 1482 1481 1481 1481 1481 1481 1481 1481
1474 1475 1483 1469 1463 1463 1464 1465 1465 1466 1466 1467 1467 1467 1467 1466 1466 1465 1463 1462 1461 1460 1460 1461 1462 1464 1466 1468 1470 1472 1474 1475 1476 1477 1477 1477 1477 1477 1477 1477 1477 1478 1478 1478
1476 1475 1471 1466 1465 1465 1466 1467 1466 1466 1467 1467 1467 1466 1466 1465 1464 1463 1461 1459 1458 1457 1457 1458 1459 1460 1462 1464 1466 1468 1469 1471 1472 1473 1473 1473 1473 1473 1473 1474 1474 1475 1476 1476
1474 1475 1472 1470 1467 1466 1468 1470 1469 1468 1469 1468 1467 1469 1468 1465 1463 1461 1459 1457 1455 1455 1454 1455 1456 1457 1459 1460 1462 1463 1465 1467 1468 1469 1469 1469 1469 1469 1470 1471 1471 1472 1473 1474
1475 1475 1469 1470 1467 1467 1474 1476 1473 1471 1470 1470 1469 1470 1468 1464 1462 1460 1457 1455 1454 1453 1453 1453 1454 1455 1456 1457 1458 1460 1461 1463 1464 1465 1465 1466 1466 1466 1467 1467 1468 1469 1470 1471
1473 1475 1476 1471 1469 1473 1476 1474 1473 1472 1471 1470 1469 1467 1465 1463 1461 1459 1456 1455 1453 1452 1452 1452 1452 1453 1453 1454 1455 1456 1458 1459 1460 1461 1461 1462 1462 1463 1463 1464 1465 1466 1467 1468
1471 1475 1473 1472 1473 1474 1474 1473 1473 1472 1470 1469 1467 1465 1464 1462 1460 1458 1456 1454 1453 1452 1451 1451 1451 1451 1451 1452 1453 1453 1454 1455 1456 1457 1457 1458 1459 1459 1460 1461 1462 1463 1464 1465
1470 1471 1472 1473 1473 1473 1473 1473 1472 1470 1469 1467 1466 1464 1462 1460 1458 1457 1455 1453 1452 1451 1450 1450 1449 1449 1449 1449 1450 1450 1451 1452 1452 1453 1453 1454 1455 1456 1456 1457 1458 1459 1460 1461
1472 1472 1472 1472 1473 1473 1472 1471 1469 1468 1466 1465 1463 1461 1460 1458 1456 1455 1453 1452 1450 1449 1448 1448 1447 1447 1447 1447 1447 1447 1447 1448 1448 1449 1449 1450 1451 1452 1452 1454 1455 1456 1457 1458
1474 1474 1475 1473 1472 1472 1470 1468 1467 1465 1463 1462 1461 1459 1457 1455 1454 1452 1451 1449 1448 1447 1446 1445 1444 1444 1444 1444 1443 1443 1443 1444 1444 1445 1445 1446 1447 1448 1448 1450 1450 1451 1452 1453
1473 1473 1473 1472 1471 1469 1468 1466 1464 1462 1460 1458 1457 1455 1454 1452 1451 1449 1448 1446 1445 1444 1443 1442 1441 1440 1440 1440 1439 1439 1439 1439 1440 1440 1441 1441 1442 1443 1444 1445 1446 1446 1447 1448
1470 1470 1470 1469 1468 1466 1464 1462 1460 1459 1457 1455 1453 1452 1450 1448 1447 1446 1444 1443 1441 1440 1439 1438 1437 1437 1436 1435 1435 1435 1435 1435 1435 1436 1436 1437 1437 1438 1439 1439 1440 1441 1442 1443
1468 1468 1467 1466 1464 1463 1461 1459 1457 1455 1453 1452 1450 1448 1446 1445 1443 1442 1440 1439 1438 1436 1435 1434 1433 1433 1432 1431 1430 1430 1430 1430 1430 1431 1431 1432 1432 1433 1433 1434 1434 1435 1436 1437
1465 1465 1464 1463 1461 1460 1458 1456 1454 1452 1450 1448 1446 1445 1443 1441 1439 1438 1436 1435 1434 1432 1431 1430 1429 1428 1427 1427 1426 1425 1425 1425 1426 1426 1426 1426 1427 1427 1427 1428 1428 1429 1430 1431
1462 1462 1461 1460 1458 1457 1455 1453 1451 1449 1447 1445 1443 1441 1439 1437 1436 1434 1432 1431 1430 1428 1427 1426 1425 1424 1423 1422 1422 1421 1420 1420 1420 1420 1420 1421 1421 1421 1422 1422 1422 1423 1423 1424
1460 1459 1458 1457 1455 1453 1451 1450 1448 1446 1444 1442 1440 1438 1436 1434 1432 1430 1428 1427 1426 1424 1423 1422 1421 1420 1419 1418 1417 1416 1416 1415 1415 1415 1415 1415 1415 1416 1416 1416 1416 1416 1417 1417
1457 1456 1455 1454 1452 1450 1448 1446 1444 1442 1440 1438 1436 1434 1432 1431 1429 1427 1425 1423 1421 1420 1419 1418 1417 1416 1415 1414 1413 1412 1411 1411 1410 1410 1410 1410 1410 1410 1410 1410 1410 1410 1410 1410
1454 1453 1452 1450 1448 1447 1445 1443 1441 1439 1437 1435 1433 1431 1429 1427 1425 1423 1421 1419 1418 1417 1415 1414 1413 1412 1410 1409 1409 1408 1407 1406 1406 1405 1405 1405 1404 1404 1404 1404 1404 1404 1403 1403
1451 1450 1448 1446 1445 1443 1441 1439 1437 1435 1433 1432 1430 1427 1425 1423 1422 1419 1417 1416 1415 1413 1412 1410 1409 1408 1407 1406 1405 1403 1403 1402 1401 1400 1400 1399 1399 1399 1398 1398 1398 1397 1397 1397
1447 1446 1444 1443 1441 1439 1437 1435 1433 1431 1429 1428 1426 1424 1422 1419 1417 1415 1414 1412 1411 1410 1408 1407 1406 1404 1403 1402 1401 1400 1399 1398 1397 1396 1395 1395 1394 1393 1393 1392 1392 1391 1391 1390
1444 1442 1440 1439 1437 1434 1433 1431 1429 1427 1425 1423 1421 1419 1417 1415 1413 1411 1409 1408 1407 1405 1404 1403 1402 1401 1399 1398 1397 1396 1395 1394 1393 1392 1391 1390 1389 1389 1388 1387 1386 1386 1385 1384
1440 1438 1436 1434 1432 1430 1428 1426 1424 1423 1421 1419 1417 1415 1413 1411 1409 1407 1405 1404 1402 1401 1400 1399 1398 1397 1396 1394 1393 1392 1391 1390 1389 1388 1387 1386 1385 1384 1383 1382 1381 1381 1380 1379
1435 1434 1432 1430 1428 1425 1423 1421 1419 1418 1416 1414 1412 1410 1409 1407 1405 1403 1401 1399 1398 1397 1396 1395 1394 1393 1392 1391 1389 1388 1387 1386 1385 1384 1382 1381 1380 1379 1378 1377 1377 1376 1375 1374
1431 1429 1427 1425 1423 1421 1419 1417 1414 1413 1411 1409 1407 1406 1404 1402 1400 1398 1396 1395 1393 1392 1391 1390 1390 1389 1388 1387 1386 1384 1383 1382 1381 1380 1378 1377 1376 1375 1374 1373 1372 1371 1370 1369
1425 1423 1421 1419 1418 1416 1414 1412 1409 1407 1406 1404 1402 1401 1399 1397 1395 1393 1391 1390 1388 1387 1386 1385 1385 1384 1383 1382 1381 1380 1379 1378 1377 1376 1374 1373 1372 1371 1369 1368 1367 1366 1365 1364